Flag for Bosnia-Herzegovina Weather past 2 weeks in Sarajevo, Bosnia-Herzegovina

Now
48 °F

Passing clouds.


Feels Like: 48 °F
Forecast: 43 / 54 °F
Wind: 1 mph from North

Location: Sarajevo / Butmir

Current Time: Sep 22, 2014 at 9:14:44 PM

Latest Report: Sep 22, 2014 at 9:00 PM


Visibility: N/A

Pressure: 29.98 "Hg

Humidity: 94%

Dew point: 46 °F

Location of SarajevoLocation

Historic Weather in Sarajevo — Graph

°F

Sarajevo temperature yesterday

Maximum temperature yesterday: 73 °F (at 1:00 PM)
Minimum temperature yesterday: 55 °F (at 3:00 AM)
Average temperature yesterday: 62 °F

Past Weeks' High & Low Weather Summary

 TemperatureHumidityPressure
High79 °F (Sep 10, 4:00 PM)100% (Sep 8, 2:00 AM)30.21 "Hg (Sep 8, 2:00 AM)
Low48 °F (Sep 14, 5:30 AM)41% (Sep 18, 4:00 PM)29.83 "Hg (Sep 11, 2:00 PM)
Average61 °F83%30.03 "Hg
* Reported Sep 7 8:00 PM — Sep 22 8:30 PM, Sarajevo, Weather by CustomWeather, © 2014

Note: Actual official high and low records may vary slightly from our data, if they occured in-between our weather recording intervals... More about our weather records

Advertising

Sarajevo weather history for previous 24 hours

 ConditionsComfort  
Time TempWeatherWind HumidityBarometerVisibility
8:30 PM
Sep 22
48 °FPassing clouds.2 mph94%29.98 "HgN/A
8:00 PM48 °FPassing clouds.3 mph94%29.98 "HgN/A
7:30 PM50 °FPartly sunny.3 mph88%29.95 "HgN/A
7:00 PM50 °FPartly sunny.5 mph100%29.98 "HgN/A
6:30 PM52 °FRain. Partly sunny.7 mph94%29.98 "Hg3 mi
6:00 PM52 °FRain. Partly sunny.10 mph94%29.98 "Hg3 mi
5:30 PM52 °FHeavy rain. Broken clouds.12 mph100%29.95 "Hg2 mi
5:00 PM54 °FThunderstorms. Partly sunny.13 mph94%29.92 "Hg3 mi
4:30 PM55 °FRain. Partly sunny.15 mph94%29.89 "Hg3 mi
4:00 PM63 °FLight rain. Partly sunny.2 mph94%29.83 "Hg4 mi
3:30 PM63 °FLight rain. Partly sunny.2 mph94%29.83 "Hg4 mi
3:00 PM63 °FLight rain. Partly sunny.2 mph94%29.86 "Hg4 mi
2:30 PM63 °FLight rain. Partly sunny.2 mph88%29.86 "Hg4 mi
2:00 PM64 °FLight rain. Partly sunny.2 mph88%29.86 "Hg5 mi
1:30 PM64 °FPartly sunny.1 mph88%29.89 "HgN/A
1:00 PM64 °FPartly sunny.1 mph94%29.89 "Hg5 mi
12:30 PM63 °FPartly sunny.3 mph100%29.89 "Hg5 mi
12:00 PM63 °FLight rain. Partly sunny.No wind100%29.89 "Hg5 mi
11:30 AM63 °FLight rain. Partly sunny.2 mph100%29.89 "Hg5 mi
11:00 AM61 °FLight rain. Partly sunny.3 mph100%29.89 "Hg5 mi
10:30 AM59 °FRain. Broken clouds.3 mph100%29.92 "Hg3 mi
10:00 AM59 °FRain. Broken clouds.1 mph100%29.89 "Hg3 mi
9:30 AM59 °FThunderstorms. Partly sunny.6 mph100%29.89 "HgN/A
9:00 AM59 °FPartly sunny.1 mph100%29.89 "HgN/A
8:30 AM57 °FScattered clouds.2 mph100%29.89 "HgN/A
8:00 AM57 °FScattered clouds.2 mph100%29.89 "HgN/A
7:30 AM57 °FLight rain. Partly cloudy.2 mph100%29.89 "HgN/A
7:00 AM55 °FLight rain. Partly cloudy.3 mph100%29.89 "Hg4 mi
6:30 AM55 °FLight rain. Fog.1 mph100%29.89 "Hg3 mi
6:00 AM55 °FPartly cloudy.2 mph100%29.89 "Hg1 mi
5:30 AM55 °FPassing clouds.2 mph100%29.89 "Hg1 mi
5:00 AM55 °FPassing clouds.2 mph100%29.89 "Hg1 mi
4:00 AM55 °FPassing clouds.2 mph100%29.92 "Hg4 mi
3:00 AM55 °FPassing clouds.1 mph100%29.92 "Hg4 mi
2:00 AM55 °FFog.1 mph100%29.95 "Hg1 mi
1:00 AM55 °FCool.1 mph100%29.95 "Hg3 mi
12:00 AM55 °FLight fog.2 mph100%29.95 "Hg4 mi
11:30 PM
Sep 21
55 °FPassing clouds.2 mph100%29.95 "Hg4 mi
10:00 PM57 °FPassing clouds.2 mph100%29.98 "HgN/A
9:30 PM59 °FClear.No wind94%29.98 "Hg10 mi
9:00 PM59 °FClear.1 mph100%29.98 "Hg10 mi
Weather by CustomWeather, © 2014

See weather overviewHow to use our weather pages